Location: De Greiden
(52.9496°N, 5.9137°E)
Time: 01:59:06
(UTC+00:00)

CZ-2C R/B - Pass Details

Date: 24 January 2021
Orbit: 704 x 908 km, 98.1° (Epoch: 26 February)

Event Time Altitude Azimuth Distance (km) Brightness Sun altitude
Rises 18:08:59 0° 176° (S) 3,332 6.4 -18.1°
Reaches altitude 10° 18:11:19 10° 180° (S) 2,434 5.7 -18.5°
Maximum altitude 18:16:40 59° 260° (W) 993 3.8 -19.3°
Drops below altitude 10° 18:22:20 10° 340° (NNW) 2,565 5.9 -20.1°
Sets 18:24:50 0° 344° (NNW) 3,526 6.6 -20.5°
